EW7075 Weather Reports


time (UTC)temp
C
wind
direction
speed
KPH
gust
KPH
rain 1hr
cm
rain 24hr
cm
rain mn
cm
humidity
%
barometer
mb
20260508010057 25 187 0.0 0.0 0.00 0.00 0.00 54 1004.7
20260508005603 25 214 0.0 0.0 0.00 0.00 0.00 54 1004.4
20260508004627 25 179 0.0 0.0 0.00 0.00 0.00 54 1004.5
20260508003100 25 206 0.0 0.0 0.00 0.00 0.00 54 1004.3
20260508002558 25 99 0.0 0.0 0.00 0.00 0.00 53 1004.6
20260508002055 25 209 0.0 0.0 0.00 0.00 0.00 53 1004.4
20260508001558 25 207 0.0 0.0 0.00 0.00 0.00 53 1004.5
20260508001105 25 180 0.0 0.0 0.00 0.00 0.00 53 1004.4
20260508000559 25 206 0.0 0.0 0.00 0.00 0.00 53 1004.3
20260507235056 25 206 0.0 0.0 0.00 0.00 0.00 53 1004.5
20260507234555 25 211 0.0 0.0 0.00 0.00 0.00 52 1004.2
20260507233555 25 246 0.0 0.0 0.00 0.00 0.00 52 1004.3
20260507233055 25 174 0.0 0.0 0.00 0.00 0.00 53 1004.1
20260507232600 25 212 0.0 0.0 0.00 0.00 0.00 53 1004.1
20260507231555 25 208 0.0 0.0 0.00 0.00 0.00 53 1004.3
20260507230600 25 220 0.0 0.0 0.00 0.00 0.00 55 1004.2
20260507225602 25 197 0.0 0.0 0.00 0.00 0.00 57 1004.1
20260507225100 25 153 0.0 0.0 0.00 0.00 0.00 55 1004.3
20260507224601 25 180 0.0 0.0 0.00 0.00 0.00 56 1004.7
20260507224059 25 171 0.0 0.0 0.00 0.00 0.00 56 1004.5
20260507223602 25 201 0.0 0.0 0.00 0.00 0.00 57 1004.6
20260507223102 25 215 0.0 0.0 0.00 0.00 0.00 56 1004.7
20260507222059 25 182 0.0 0.0 0.00 0.00 0.00 55 1004.7
20260507221602 25 164 0.0 0.0 0.00 0.00 0.00 56 1004.9
20260507221107 25 209 0.0 0.0 0.00 0.00 0.00 56 1004.8
20260507220559 25 231 0.0 0.0 0.00 0.00 0.00 59 1005.0
20260507220058 25 4 0.0 0.0 0.00 0.00 0.00 56 1005.1
20260507215102 25 192 0.0 0.0 0.00 0.00 0.00 57 1005.2
20260507214558 25 222 0.0 0.0 0.00 0.00 0.00 57 1005.4
20260507214058 25 197 0.0 0.0 0.00 0.00 0.00 60 1005.4
20260507213058 25 217 0.0 0.0 0.00 0.00 0.00 65 1005.5
20260507212558 25 214 0.0 0.0 0.00 0.00 0.00 63 1005.5
20260507212102 25 214 0.0 0.0 0.00 0.00 0.00 56 1005.6
20260507211558 25 230 0.0 0.0 0.00 0.00 0.00 56 1005.6
20260507211103 25 183 0.0 0.0 0.00 0.00 0.00 62 1005.8
20260507210558 25 174 0.0 0.0 0.00 0.00 0.00 57 1005.8
20260507210100 25 205 0.0 0.0 0.00 0.00 0.00 59 1005.7
20260507205559 25 216 0.0 0.0 0.00 0.00 0.00 66 1005.5
20260507205057 25 154 0.0 0.0 0.00 0.00 0.00 56 1005.7
20260507204057 25 159 0.0 0.0 0.00 0.00 0.00 58 1005.8
20260507203058 25 187 0.0 0.0 0.00 0.00 0.00 54 1005.8
20260507202558 26 266 0.0 0.0 0.00 0.00 0.00 58 1005.9
20260507202100 26 160 0.0 0.0 0.00 0.00 0.00 60 1005.7
20260507201558 26 159 0.0 0.0 0.00 0.00 0.00 56 1005.7
20260507201103 26 205 0.0 0.0 0.00 0.00 0.00 58 1005.7
20260507200558 26 192 0.0 0.0 0.00 0.00 0.00 55 1005.6
20260507195601 25 197 0.0 0.0 0.00 0.00 0.00 57 1005.5
20260507195059 25 197 0.0 0.0 0.00 0.00 0.00 58 1005.5
20260507194604 25 197 0.0 0.0 0.00 0.00 0.00 68 1005.3
20260507194058 25 197 0.0 0.0 0.00 0.00 0.00 63 1005.5
20260507193558 25 197 0.0 0.0 0.00 0.00 0.00 55 1005.4
20260507193058 25 222 0.0 0.0 0.00 0.00 0.00 58 1005.5
20260507192557 25 187 0.0 0.0 0.00 0.00 0.00 64 1005.7
20260507192101 25 141 0.0 0.0 0.00 0.00 0.00 69 1005.6
20260507191558 25 138 0.0 0.0 0.00 0.00 0.00 64 1005.8
20260507191105 25 218 0.0 0.0 0.00 0.00 0.00 65 1005.8
20260507190558 26 218 0.0 0.0 0.00 0.00 0.00 65 1005.8
20260507190058 26 222 0.0 0.0 0.00 0.00 0.00 59 1005.8
20260507185600 26 27 0.0 0.0 0.00 0.00 0.00 58 1005.7
20260507185058 26 201 0.0 0.0 0.00 0.00 0.00 53 1005.8
20260507184557 26 206 0.0 0.0 0.00 0.00 0.00 57 1005.9
20260507184058 26 171 0.0 0.0 0.00 0.00 0.00 53 1005.9
20260507183602 26 202 0.0 0.0 0.00 0.00 0.00 56 1005.9
20260507182559 26 208 0.0 0.0 0.00 0.00 0.00 60 1005.9
20260507182056 26 209 0.0 0.0 0.00 0.00 0.00 52 1006.0
20260507181558 26 174 0.0 0.0 0.00 0.00 0.00 52 1006.0
20260507181107 26 11 0.0 0.0 0.00 0.00 0.00 52 1005.9
20260507180057 26 183 0.0 0.0 0.00 0.00 0.00 53 1005.9
20260507175559 26 171 0.0 0.0 0.00 0.00 0.00 50 1005.9
20260507175101 26 237 0.0 0.0 0.00 0.00 0.00 51 1006.1
20260507174556 26 176 0.0 0.0 0.00 0.00 0.00 51 1005.9
20260507174058 26 187 0.0 0.0 0.00 0.00 0.00 53 1006.0
20260507173558 26 197 0.0 0.0 0.00 0.00 0.00 53 1005.9
20260507172558 27 197 0.0 0.0 0.00 0.00 0.00 53 1006.0
20260507172104 27 187 0.0 0.0 0.00 0.00 0.00 52 1006.3
20260507171558 27 210 0.0 0.0 0.00 0.00 0.00 55 1006.4
20260507171102 27 207 0.0 0.0 0.00 0.00 0.00 53 1006.4
20260507170603 27 197 0.0 0.0 0.00 0.00 0.00 55 1006.4
20260507170059 27 206 0.0 0.0 0.00 0.00 0.00 52 1006.6
20260507165559 27 187 0.0 0.0 0.00 0.00 0.00 54 1006.7
20260507165102 27 174 0.0 0.0 0.00 0.00 0.00 53 1006.8
20260507164600 27 213 0.0 0.0 0.00 0.00 0.00 52 1007.0
20260507164104 27 176 0.0 0.0 0.00 0.00 0.00 52 1007.0
20260507163558 27 201 0.0 0.0 0.00 0.00 0.00 50 1006.9
20260507163058 27 192 0.0 0.0 0.00 0.00 0.00 50 1006.8
20260507162558 27 207 0.0 0.0 0.00 0.00 0.00 51 1006.8
20260507162056 27 214 0.0 0.0 0.00 0.00 0.00 53 1006.9
20260507161603 27 222 0.0 0.0 0.00 0.00 0.00 51 1007.1
20260507161101 27 214 0.0 0.0 0.00 0.00 0.00 52 1007.1
20260507160601 27 145 0.0 0.0 0.00 0.00 0.00 51 1007.2
20260507160057 27 159 0.0 0.0 0.00 0.00 0.00 51 1007.2
20260507155601 27 209 0.0 0.0 0.00 0.00 0.00 52 1007.0
20260507155058 27 211 0.0 0.0 0.00 0.00 0.00 55 1007.2
20260507154556 27 187 0.0 0.0 0.00 0.00 0.00 54 1007.2
20260507154103 27 170 0.0 0.0 0.00 0.00 0.00 58 1007.3
20260507153600 26 197 0.0 0.0 0.00 0.00 0.00 57 1007.3
20260507152557 26 273 0.0 0.0 0.00 0.00 0.00 58 1007.6
20260507151558 26 205 0.0 0.0 0.00 0.00 0.00 60 1007.7
20260507151103 26 284 0.0 0.0 0.00 0.00 0.00 60 1007.8
20260507150603 26 207 0.0 0.0 0.00 0.00 0.00 61 1007.8
20260507150059 26 192 0.0 0.0 0.00 0.00 0.00 62 1007.9
20260507145611 25 236 0.0 0.0 0.00 0.00 0.00 63 1008.4
20260507144602 25 197 0.0 0.0 0.00 0.00 0.00 62 1008.5
20260507143559 25 192 0.0 0.0 0.00 0.00 0.00 62 1008.8
20260507143101 25 220 0.0 0.0 0.00 0.00 0.00 65 1009.0
20260507142058 25 197 0.0 0.0 0.00 0.00 0.00 63 1009.3
20260507140558 25 209 0.0 0.0 0.00 0.00 0.00 64 1009.8
20260507140059 25 205 0.0 0.0 0.00 0.00 0.00 66 1010.0
20260507135603 25 183 0.0 0.0 0.00 0.00 0.00 67 1010.2
20260507135059 25 197 0.0 0.0 0.00 0.00 0.00 65 1010.3
20260507134101 25 222 0.0 0.0 0.00 0.00 0.00 67 1010.5
20260507133601 24 178 0.0 0.0 0.00 0.00 0.00 68 1010.6
20260507133058 24 197 0.0 0.0 0.00 0.00 0.00 68 1010.8
20260507132559 24 162 0.0 0.0 0.00 0.00 0.00 66 1010.9
20260507132101 24 181 0.0 0.0 0.00 0.00 0.00 68 1010.9
20260507131559 23 192 0.0 0.0 0.00 0.00 0.00 68 1010.8
20260507131107 23 211 0.0 0.0 0.00 0.00 0.00 67 1011.2
20260507130601 23 192 0.0 0.0 0.00 0.00 0.00 68 1011.2
20260507130103 23 165 0.0 0.0 0.00 0.00 0.00 71 1011.3
20260507125600 23 213 0.0 0.0 0.00 0.00 0.00 72 1011.4
20260507125057 22 197 0.0 0.0 0.00 0.00 0.00 71 1011.5
20260507124558 22 219 0.0 0.0 0.00 0.00 0.00 71 1011.6
20260507124101 22 220 0.0 0.0 0.00 0.00 0.00 75 1011.8
20260507123602 22 219 0.0 0.0 0.00 0.00 0.00 72 1011.9
20260507123101 22 214 0.0 0.0 0.00 0.00 0.00 72 1012.0
20260507122559 22 243 0.0 0.0 0.00 0.00 0.00 74 1012.1
20260507121557 22 209 0.0 0.0 0.00 0.00 0.00 77 1012.0
20260507121104 22 209 0.0 0.0 0.00 0.00 0.00 76 1012.0
20260507120601 22 207 0.0 0.0 0.00 0.00 0.00 78 1011.9
20260507120058 22 207 0.0 0.0 0.00 0.00 0.00 78 1012.1
20260507115057 22 207 0.0 0.0 0.00 0.00 0.00 75 1011.9
20260507114557 22 206 0.0 0.0 0.00 0.00 0.00 76 1012.0
20260507114057 22 206 0.0 0.0 0.00 0.00 0.00 74 1011.9
20260507113557 22 211 0.0 0.0 0.00 0.00 0.00 77 1012.0
20260507113057 22 209 0.0 0.0 0.00 0.00 0.00 75 1011.9
20260507112558 22 209 0.0 0.0 0.00 0.00 0.00 75 1011.9
20260507112101 22 209 0.0 0.0 0.00 0.00 0.00 73 1011.9
20260507111600 22 228 0.0 0.0 0.00 0.00 0.00 74 1011.7
20260507110557 22 204 0.0 0.0 0.00 0.00 0.00 74 1011.3
20260507110059 22 206 0.0 0.0 0.00 0.00 0.00 73 1011.3
20260507105057 22 219 0.0 0.0 0.00 0.00 0.00 73 1011.2
20260507104557 22 205 0.0 0.0 0.00 0.00 0.00 74 1011.4
20260507104104 22 208 0.0 0.0 0.00 0.00 0.00 73 1011.1
20260507103601 22 197 0.0 0.0 0.00 0.00 0.00 73 1011.2
20260507103100 22 178 0.0 0.0 0.00 0.00 0.00 74 1011.2
20260507102557 22 236 0.0 0.0 0.00 0.00 0.00 74 1011.1
20260507102057 22 233 0.0 0.0 0.00 0.00 0.00 74 1011.1
20260507101056 22 197 0.0 0.0 0.00 0.00 0.00 74 1011.0
20260507100559 22 197 0.0 0.0 0.00 0.00 0.00 74 1011.2
20260507100058 22 232 0.0 0.0 0.00 0.00 0.00 73 1011.1
20260507095059 22 160 0.0 0.0 0.00 0.00 0.00 74 1011.1
20260507094558 22 197 0.0 0.0 0.00 0.00 0.00 74 1011.3
20260507094056 22 230 0.0 0.0 0.00 0.00 0.00 73 1011.4
20260507093556 22 206 0.0 0.0 0.00 0.00 0.00 73 1011.3
20260507093100 22 235 0.0 0.0 0.00 0.00 0.00 74 1011.3
20260507092558 22 344 0.0 0.0 0.00 0.00 0.00 74 1011.2
20260507092104 22 197 0.0 0.0 0.00 0.00 0.00 73 1011.3
20260507091556 22 197 0.0 0.0 0.00 0.00 0.00 73 1011.3
20260507091105 22 34 0.0 0.0 0.00 0.00 0.00 73 1011.3
20260507090602 22 187 0.0 0.0 0.00 0.00 0.00 73 1011.1
20260507090100 22 226 0.0 0.0 0.00 0.00 0.00 73 1011.1
20260507085559 22 178 0.0 0.0 0.00 0.00 0.00 72 1011.0
20260507085100 22 207 0.0 0.0 0.00 0.00 0.00 73 1010.9
20260507084600 22 222 0.0 0.0 0.00 0.00 0.00 73 1011.0
20260507084103 22 180 0.0 0.0 0.00 0.00 0.00 72 1011.0
20260507083556 22 212 0.0 0.0 0.00 0.00 0.00 72 1011.1
20260507083102 22 74 0.0 0.0 0.00 0.00 0.00 72 1011.2
20260507082555 22 175 0.0 0.0 0.00 0.00 0.00 72 1011.1
20260507082057 22 204 0.0 0.0 0.00 0.00 0.00 72 1011.0
20260507081600 22 203 0.0 0.0 0.00 0.00 0.00 73 1011.1
20260507081103 22 197 0.0 0.0 0.00 0.00 0.00 72 1011.0
20260507080559 22 220 0.0 0.0 0.00 0.00 0.00 72 1010.9
20260507075558 22 220 0.0 0.0 0.00 0.00 0.00 72 1011.2